GW5759 Weather Reports


Display with metric or nautical units.
time (UTC)temp
F
wind
direction
speed
MPH
gust
MPH
rain 1hr
in
rain 24hr
in
rain mn
in
humidity
%
barometer
mb
20260503004503 51 0 0.0 0.0 0.00 0.00 0.00 68 1017.5
20260503003816 52 0 0.0 0.0 0.00 0.00 0.00 67 1017.3
20260503002703 52 0 0.0 0.0 0.00 0.00 0.00 66 1017.7
20260503001803 52 130 0.0 1.0 0.00 0.00 0.00 65 1017.5
20260503000903 52 0 0.0 0.0 0.00 0.00 0.00 66 1017.4
20260503000003 53 103 0.0 1.0 0.00 0.00 0.00 66 1017.7
20260502235404 53 103 0.0 1.0 0.00 0.00 0.00 65 1017.6
20260502234716 52 0 0.0 0.0 0.00 0.00 0.00 67 1017.6
20260502233603 51 124 0.0 1.0 0.00 0.00 0.00 69 1017.7
20260502232703 50 0 0.0 0.0 0.00 0.00 0.00 70 1017.8
20260502231803 50 0 0.0 0.0 0.00 0.00 0.00 70 1017.8
20260502231118 50 0 0.0 0.0 0.00 0.00 0.00 70 1018.0
20260502230003 51 0 0.0 0.0 0.00 0.00 0.00 69 1017.8
20260502225403 50 0 0.0 0.0 0.00 0.00 0.00 70 1018.0
20260502224716 50 0 0.0 0.0 0.00 0.00 0.00 71 1018.1
20260502223819 50 0 0.0 0.0 0.00 0.00 0.00 70 1018.1
20260502222703 51 0 0.0 0.0 0.00 0.00 0.00 70 1018.1
20260502222018 49 0 0.0 0.0 0.00 0.00 0.00 74 1018.2
20260502220903 49 0 0.0 0.0 0.00 0.00 0.00 75 1018.1
20260502220217 49 0 0.0 0.0 0.00 0.00 0.00 75 1018.0
20260502215403 50 0 0.0 0.0 0.00 0.00 0.00 76 1018.1
20260502214720 50 147 0.0 1.0 0.00 0.00 0.00 74 1018.0
20260502213603 50 0 0.0 0.0 0.00 0.00 0.00 74 1017.9
20260502212703 49 0 0.0 0.0 0.00 0.00 0.00 74 1018.3
20260502211803 49 0 0.0 0.0 0.00 0.00 0.00 75 1017.9
20260502210903 49 0 0.0 0.0 0.00 0.00 0.00 75 1018.3
20260502210004 51 0 0.0 0.0 0.00 0.00 0.00 70 1018.4
20260502205616 52 0 0.0 0.0 0.00 0.00 0.00 69 1018.3
20260502204503 52 0 0.0 0.0 0.00 0.00 0.00 69 1018.2
20260502203603 52 0 0.0 0.0 0.00 0.00 0.00 68 1018.2
20260502202703 51 0 0.0 0.0 0.00 0.00 0.00 70 1018.5
20260502202017 51 0 0.0 0.0 0.00 0.00 0.00 71 1018.4
20260502200903 51 0 0.0 0.0 0.00 0.00 0.00 71 1018.4
20260502200003 52 0 0.0 0.0 0.00 0.00 0.00 67 1018.6
20260502195403 53 0 0.0 0.0 0.00 0.00 0.00 65 1018.6
20260502194504 54 0 0.0 0.0 0.00 0.00 0.00 62 1018.4
20260502193603 56 0 0.0 0.0 0.00 0.00 0.00 59 1018.6
20260502192703 56 0 0.0 0.0 0.00 0.00 0.00 57 1018.8
20260502191803 55 0 0.0 0.0 0.00 0.00 0.00 58 1018.6
20260502190903 54 0 0.0 0.0 0.00 0.00 0.00 61 1018.7
20260502190004 55 0 0.0 0.0 0.00 0.00 0.00 61 1018.6
20260502185403 57 0 0.0 0.0 0.00 0.00 0.00 59 1018.4
20260502184503 59 0 0.0 0.0 0.00 0.00 0.00 56 1018.4
20260502183603 60 0 0.0 0.0 0.00 0.00 0.00 51 1018.4
20260502182703 63 0 0.0 0.0 0.00 0.00 0.00 46 1018.3
20260502181803 64 0 0.0 0.0 0.00 0.00 0.00 43 1018.3
20260502181116 66 0 0.0 0.0 0.00 0.00 0.00 40 1018.3
20260502180219 68 0 0.0 0.0 0.00 0.00 0.00 36 1018.4
20260502163603 74 217 1.0 3.0 0.00 0.00 0.00 29 1018.9
20260502162703 74 194 0.0 1.0 0.00 0.00 0.00 29 1018.9
20260502162016 75 232 1.0 3.0 0.00 0.00 0.00 29 1019.1
20260502161119 75 219 1.0 3.0 0.00 0.00 0.00 30 1019.7
20260502151803 76 184 2.0 3.0 0.00 0.00 0.00 28 1019.8
20260502150903 78 194 1.0 4.0 0.00 0.00 0.00 28 1020.0
20260502123603 79 210 1.0 3.0 0.00 0.00 0.00 28 1021.7
20260502122919 78 227 1.0 3.0 0.00 0.00 0.00 29 1021.7
20260502121803 78 185 1.0 4.0 0.00 0.00 0.00 28 1021.8
20260502120904 76 211 1.0 4.0 0.00 0.00 0.00 31 1022.0
20260502115403 78 150 1.0 4.0 0.00 0.00 0.00 28 1022.4
20260502114503 78 135 0.0 2.0 0.00 0.00 0.00 29 1022.3
20260502113603 78 231 1.0 2.0 0.00 0.00 0.00 28 1022.6
20260502112919 80 254 0.0 2.0 0.00 0.00 0.00 30 1022.4
20260502111803 77 214 1.0 3.0 0.00 0.00 0.00 29 1022.6
20260502111117 77 197 1.0 3.0 0.00 0.00 0.00 29 1022.7
20260502110004 79 114 0.0 1.0 0.00 0.00 0.00 31 1022.8
20260502105403 78 231 0.0 2.0 0.00 0.00 0.00 31 1022.7
20260502104503 76 232 1.0 4.0 0.00 0.00 0.00 31 1022.9
20260502103819 76 302 1.0 2.0 0.00 0.00 0.00 31 1023.0
20260502102703 78 43 0.0 1.0 0.00 0.00 0.00 29 1023.3
20260502101803 76 213 1.0 3.0 0.00 0.00 0.00 30 1023.3
20260502100903 76 212 1.0 4.0 0.00 0.00 0.00 32 1023.5
20260502090903 75 186 1.0 2.0 0.00 0.00 0.00 33 1024.2
20260502090216 73 158 1.0 2.0 0.00 0.00 0.00 31 1024.2
20260502070903 65 155 0.0 1.0 0.00 0.00 0.00 51 1024.8
20260502070219 63 184 0.0 2.0 0.00 0.00 0.00 55 1024.8
20260502065403 62 156 0.0 1.0 0.00 0.00 0.00 56 1024.8
20260502064504 60 272 0.0 1.0 0.00 0.00 0.00 58 1024.6
20260502063817 59 221 0.0 2.0 0.00 0.00 0.00 62 1024.7
20260502062703 58 180 0.0 1.0 0.00 0.00 0.00 65 1024.6
20260502061803 57 0 0.0 0.0 0.00 0.00 0.00 68 1025.1
20260502061119 57 0 0.0 0.0 0.00 0.00 0.00 66 1024.9
20260502060003 56 7 0.0 1.0 0.00 0.00 0.00 71 1024.9
20260502055403 54 7 0.0 1.0 0.00 0.00 0.00 71 1024.6
20260502054718 53 0 0.0 0.0 0.00 0.00 0.00 73 1024.9
20260502053603 51 0 0.0 0.0 0.00 0.00 0.00 77 1024.9
20260502052703 48 0 0.0 0.0 0.00 0.00 0.00 86 1024.8
20260502051803 46 0 0.0 0.0 0.00 0.00 0.00 92 1024.8
20260502050903 44 0 0.0 0.0 0.00 0.00 0.00 95 1024.7
20260502050218 42 0 0.0 0.0 0.00 0.00 0.00 95 1024.8
20260502045403 40 0 0.0 0.0 0.00 0.00 0.00 95 1024.6
20260502044504 39 0 0.0 0.0 0.00 0.00 0.00 95 1024.6
20260502043817 39 0 0.0 0.0 0.00 0.00 0.00 95 1024.8
20260502042703 37 0 0.0 0.0 0.00 0.00 0.00 95 1024.7
20260502041803 37 0 0.0 0.0 0.00 0.00 0.00 95 1024.6
20260502040903 36 0 0.0 0.0 0.00 0.00 0.00 95 1024.7
20260502040004 35 0 0.0 0.0 0.00 0.00 0.00 95 1024.8
20260502035403 35 0 0.0 0.0 0.00 0.00 0.00 95 1024.6
20260502034503 35 0 0.0 0.0 0.00 0.00 0.00 95 1024.5
20260502033603 35 0 0.0 0.0 0.00 0.00 0.00 95 1024.5
20260502032703 34 0 0.0 0.0 0.00 0.00 0.00 94 1024.4
20260502031803 35 0 0.0 0.0 0.00 0.00 0.00 94 1024.4
20260502030903 35 0 0.0 0.0 0.00 0.00 0.00 94 1024.3
20260502030003 35 0 0.0 0.0 0.00 0.00 0.00 94 1024.4
20260502025403 36 0 0.0 0.0 0.00 0.00 0.00 94 1024.6
20260502024717 36 0 0.0 0.0 0.00 0.00 0.00 94 1024.6
20260502023604 36 0 0.0 0.0 0.00 0.00 0.00 94 1024.6
20260502022919 37 0 0.0 0.0 0.00 0.00 0.00 94 1024.6
20260502021803 38 0 0.0 0.0 0.00 0.00 0.00 94 1024.8
20260502020903 37 0 0.0 0.0 0.00 0.00 0.00 94 1024.7
20260502020003 37 0 0.0 0.0 0.00 0.00 0.00 94 1024.7
20260502015403 37 0 0.0 0.0 0.00 0.00 0.00 93 1024.7
20260502014503 38 0 0.0 0.0 0.00 0.00 0.00 94 1024.7
20260502013819 37 0 0.0 0.0 0.00 0.00 0.00 93 1024.8
20260502012703 38 0 0.0 0.0 0.00 0.00 0.00 93 1024.4
20260502011803 39 0 0.0 0.0 0.00 0.00 0.00 93 1024.6
20260502011118 39 0 0.0 0.0 0.00 0.00 0.00 93 1024.5
20260502010004 39 0 0.0 0.0 0.00 0.00 0.00 93 1024.6
20260502005403 39 0 0.0 0.0 0.00 0.00 0.00 93 1024.8